CFG5VL EDDF-GCTS

Flight info

Callsign CFG5VL
Flight time 4h 27m
Altitude 33000
Route N0446F320 SOBRA Y180 DIK UN857 TOLVU N0447F330 DCT RAPOR DCT GIMER DCT AHVEC N0449F350 UN857 DISAK DCT ARKIP DCT ARNAV DCT LMG DCT UVELI DCT OSMOB DCT ARVID DCT PPN DCT NOLSA N857 KORNO UN857 TERTO
Aircraft A320/M-SDE3FGHIJ1LORVWXYZ/SB1

Departure

Time 2026-04-16 11:02
Airport Frankfurt Main Airport (EDDF)

Arrival

Time 2026-04-16 15:29
Airport Tenerife Sur Airport (GCTS)
Time Latitude Longitude Altitude Speed Heading
2026-04-16 10:09 50.04920 8.59186 365 ft 0 kts 340°
2026-04-16 10:53 50.04914 8.59189 365 ft 2 kts 340°
2026-04-16 10:54 50.04895 8.59200 368 ft 3 kts 340°
2026-04-16 10:54 50.04877 8.59211 367 ft 3 kts 340°
2026-04-16 10:54 50.04858 8.59221 370 ft 3 kts 340°
2026-04-16 10:54 50.04848 8.59227 369 ft 0 kts 340°
2026-04-16 10:55 50.04850 8.59226 369 ft 0 kts 340°
2026-04-16 10:58 50.04846 8.59173 368 ft 13 kts 249°
2026-04-16 10:58 50.04792 8.59000 369 ft 18 kts 242°
2026-04-16 10:58 50.04754 8.58874 371 ft 9 kts 249°
2026-04-16 10:58 50.04730 8.58783 368 ft 12 kts 247°
2026-04-16 10:59 50.04689 8.58636 372 ft 14 kts 248°
2026-04-16 10:59 50.04658 8.58567 374 ft 2 kts 209°
2026-04-16 10:59 50.04646 8.58562 369 ft 3 kts 190°
2026-04-16 10:59 50.04643 8.58562 372 ft 1 kts 187°
2026-04-16 11:00 50.04629 8.58568 372 ft 0 kts 162°
2026-04-16 11:00 50.04627 8.58569 372 ft 2 kts 161°
2026-04-16 11:00 50.04591 8.58590 371 ft 8 kts 159°
2026-04-16 11:00 50.04543 8.58616 371 ft 7 kts 162°
2026-04-16 11:01 50.04506 8.58609 370 ft 5 kts 210°
2026-04-16 11:01 50.04488 8.58577 370 ft 5 kts 241°
2026-04-16 11:01 50.04424 8.58326 372 ft 58 kts 250°
2026-04-16 11:01 50.04206 8.57407 367 ft 120 kts 250°
2026-04-16 11:02 50.03854 8.55937 355 ft 168 kts 249°
2026-04-16 11:02 50.03453 8.54244 897 ft 168 kts 249°
2026-04-16 11:02 50.03045 8.52534 1563 ft 170 kts 249°
2026-04-16 11:02 50.02435 8.50877 1926 ft 187 kts 225°
2026-04-16 11:03 50.01300 8.49723 2136 ft 207 kts 199°
2026-04-16 11:03 49.99861 8.49044 2429 ft 226 kts 195°
2026-04-16 11:03 49.96828 8.47467 3762 ft 234 kts 198°
2026-04-16 11:04 49.95287 8.46625 4550 ft 234 kts 198°
2026-04-16 11:04 49.93765 8.45729 5358 ft 235 kts 205°
2026-04-16 11:04 49.92402 8.44316 5863 ft 249 kts 221°
2026-04-16 11:04 49.91103 8.42381 6297 ft 266 kts 223°
2026-04-16 11:05 49.89763 8.40371 7019 ft 270 kts 223°
2026-04-16 11:05 49.88408 8.38339 7754 ft 273 kts 224°
2026-04-16 11:05 49.87035 8.36281 8485 ft 276 kts 224°
2026-04-16 11:05 49.85646 8.34204 9199 ft 279 kts 223°
2026-04-16 11:06 49.84238 8.32104 9908 ft 283 kts 224°
2026-04-16 11:06 49.82825 8.30004 10482 ft 291 kts 224°
2026-04-16 11:06 49.81428 8.27581 10628 ft 314 kts 235°
2026-04-16 11:06 49.80368 8.24510 10794 ft 334 kts 250°
2026-04-16 11:07 49.79823 8.20966 11299 ft 342 kts 264°
2026-04-16 11:07 49.79883 8.17270 11920 ft 347 kts 280°
2026-04-16 11:07 49.80430 8.13634 12587 ft 350 kts 283°
2026-04-16 11:07 49.81011 8.09944 13280 ft 352 kts 283°
2026-04-16 11:08 49.81594 8.06245 13974 ft 355 kts 283°
2026-04-16 11:08 49.82182 8.02516 14571 ft 358 kts 283°
2026-04-16 11:08 49.82766 7.98809 15142 ft 361 kts 283°
2026-04-16 11:08 49.83363 7.95016 15709 ft 364 kts 282°
2026-04-16 11:09 49.83649 7.91107 16276 ft 367 kts 271°
2026-04-16 11:09 49.83736 7.87147 16829 ft 370 kts 271°
2026-04-16 11:09 49.83821 7.83146 17358 ft 373 kts 271°
2026-04-16 11:09 49.83904 7.79116 17891 ft 376 kts 271°
2026-04-16 11:10 49.83985 7.75052 18419 ft 379 kts 271°
2026-04-16 11:10 49.84068 7.70953 18886 ft 382 kts 271°
2026-04-16 11:10 49.84148 7.66882 19353 ft 384 kts 271°
2026-04-16 11:10 49.84188 7.64832 19585 ft 385 kts 271°
2026-04-16 11:11 49.84287 7.59681 20175 ft 388 kts 271°
2026-04-16 11:11 49.84365 7.55482 20660 ft 391 kts 272°
2026-04-16 11:11 49.84443 7.51270 21132 ft 393 kts 272°
2026-04-16 11:11 49.84521 7.47024 21594 ft 395 kts 272°
2026-04-16 11:12 49.84598 7.42763 22021 ft 398 kts 272°
2026-04-16 11:12 49.84674 7.38454 22466 ft 400 kts 272°
2026-04-16 11:12 49.84747 7.34190 22900 ft 403 kts 272°
2026-04-16 11:12 49.84818 7.29845 23320 ft 405 kts 272°
2026-04-16 11:13 49.84886 7.25471 23723 ft 407 kts 271°
2026-04-16 11:13 49.84953 7.21080 24072 ft 409 kts 272°
2026-04-16 11:13 49.85021 7.16667 24421 ft 411 kts 272°
2026-04-16 11:13 49.85090 7.12239 24767 ft 412 kts 272°
2026-04-16 11:14 49.85156 7.07797 25097 ft 413 kts 272°
2026-04-16 11:14 49.85218 7.03341 25417 ft 414 kts 272°
2026-04-16 11:14 49.85279 6.98874 25730 ft 416 kts 272°
2026-04-16 11:14 49.85339 6.94381 26042 ft 417 kts 272°
2026-04-16 11:15 49.85398 6.89948 26351 ft 418 kts 272°
2026-04-16 11:15 49.85456 6.85433 26675 ft 420 kts 272°
2026-04-16 11:15 49.85510 6.80900 26982 ft 421 kts 272°
2026-04-16 11:15 49.85563 6.76366 27289 ft 422 kts 272°
2026-04-16 11:16 49.85616 6.71806 27578 ft 424 kts 272°
2026-04-16 11:16 49.85668 6.67236 27867 ft 425 kts 272°
2026-04-16 11:16 49.85720 6.62659 28145 ft 426 kts 272°
2026-04-16 11:16 49.85773 6.58117 28421 ft 427 kts 272°
2026-04-16 11:17 49.85823 6.53513 28679 ft 428 kts 272°
2026-04-16 11:17 49.85869 6.48890 28946 ft 430 kts 272°
2026-04-16 11:17 49.85911 6.44251 29182 ft 431 kts 272°
2026-04-16 11:17 49.85949 6.39599 29427 ft 432 kts 272°
2026-04-16 11:18 49.85984 6.34931 29654 ft 433 kts 272°
2026-04-16 11:18 49.86019 6.30255 29889 ft 435 kts 272°
2026-04-16 11:18 49.86052 6.25566 30102 ft 436 kts 272°
2026-04-16 11:18 49.86084 6.20866 30353 ft 436 kts 272°
2026-04-16 11:19 49.86085 6.16242 30609 ft 435 kts 268°
2026-04-16 11:19 49.85703 6.11589 30874 ft 436 kts 259°
2026-04-16 11:19 49.84851 6.07080 31131 ft 437 kts 253°
2026-04-16 11:19 49.83865 6.02634 31389 ft 436 kts 253°
2026-04-16 11:20 49.82882 5.98193 31647 ft 435 kts 253°
2026-04-16 11:20 49.81906 5.93769 31896 ft 434 kts 253°
2026-04-16 11:20 49.80934 5.89356 32146 ft 433 kts 253°
2026-04-16 11:20 49.79965 5.84956 32402 ft 432 kts 254°
2026-04-16 11:21 49.78996 5.80568 32659 ft 430 kts 254°
2026-04-16 11:21 49.78038 5.76244 32901 ft 430 kts 254°
2026-04-16 11:21 49.77069 5.71881 33141 ft 429 kts 254°
2026-04-16 11:22 49.75139 5.63217 33237 ft 423 kts 254°
2026-04-16 11:22 49.73222 5.54647 33238 ft 422 kts 253°
2026-04-16 11:23 49.71295 5.46087 33241 ft 421 kts 253°
2026-04-16 11:23 49.69372 5.37603 33241 ft 421 kts 253°
2026-04-16 11:24 49.67435 5.29083 33241 ft 420 kts 253°
2026-04-16 11:24 49.65500 5.20571 33243 ft 420 kts 253°
2026-04-16 11:25 49.63554 5.12064 33245 ft 420 kts 253°
2026-04-16 11:25 49.61616 5.03640 33248 ft 420 kts 253°
2026-04-16 11:26 49.59662 4.95157 33252 ft 419 kts 253°
2026-04-16 11:26 49.57705 4.86693 33251 ft 419 kts 253°
2026-04-16 11:27 49.55739 4.78245 33252 ft 419 kts 253°
2026-04-16 11:27 49.53788 4.69869 33254 ft 418 kts 253°
2026-04-16 11:28 49.51816 4.61450 33257 ft 418 kts 253°
2026-04-16 11:28 49.49837 4.53054 33255 ft 417 kts 253°
2026-04-16 11:29 49.47862 4.44680 33304 ft 412 kts 255°
2026-04-16 11:29 49.45938 4.36568 33257 ft 404 kts 255°
2026-04-16 11:30 49.44011 4.28460 33259 ft 404 kts 255°
2026-04-16 11:30 49.42080 4.20367 33261 ft 404 kts 255°
2026-04-16 11:31 49.40158 4.12351 33264 ft 403 kts 255°
2026-04-16 11:31 49.38212 4.04259 33261 ft 403 kts 255°
2026-04-16 11:32 49.36051 3.96292 33256 ft 409 kts 245°
2026-04-16 11:32 49.33446 3.90188 33252 ft 412 kts 242°
2026-04-16 11:33 49.30261 3.82879 33253 ft 412 kts 242°
2026-04-16 11:33 49.26563 3.74386 33250 ft 412 kts 242°
2026-04-16 11:34 49.23378 3.67086 33243 ft 413 kts 242°
2026-04-16 11:34 49.20724 3.61023 33246 ft 413 kts 242°
2026-04-16 11:35 49.17521 3.53737 33245 ft 413 kts 242°
2026-04-16 11:35 49.13797 3.45284 33251 ft 413 kts 242°
2026-04-16 11:36 49.11108 3.39189 33251 ft 413 kts 242°
2026-04-16 11:36 49.07919 3.31979 33246 ft 413 kts 242°
2026-04-16 11:37 49.04701 3.24713 33252 ft 413 kts 242°
2026-04-16 11:37 49.01479 3.17475 33256 ft 413 kts 241°
2026-04-16 11:38 48.98244 3.10237 33254 ft 413 kts 241°
2026-04-16 11:38 48.95029 3.03054 33258 ft 413 kts 241°
2026-04-16 11:39 48.92005 2.96302 33259 ft 413 kts 241°
2026-04-16 11:39 48.88826 2.89227 33262 ft 413 kts 241°
2026-04-16 11:40 48.85568 2.82027 33261 ft 414 kts 240°
2026-04-16 11:40 48.82331 2.74879 33263 ft 414 kts 240°
2026-04-16 11:41 48.79171 2.67893 33269 ft 414 kts 240°
2026-04-16 11:41 48.75908 2.60707 33278 ft 414 kts 240°
2026-04-16 11:42 48.72638 2.53533 33273 ft 414 kts 240°
2026-04-16 11:42 48.69365 2.46366 33277 ft 414 kts 240°
2026-04-16 11:43 48.66110 2.39265 33282 ft 413 kts 240°
2026-04-16 11:43 48.62823 2.32125 33281 ft 413 kts 240°
2026-04-16 11:44 48.59477 2.25054 33277 ft 417 kts 234°
2026-04-16 11:44 48.57389 2.21975 33275 ft 424 kts 223°
2026-04-16 11:44 48.54903 2.19519 33266 ft 432 kts 212°
2026-04-16 11:44 48.52133 2.17836 33268 ft 440 kts 201°
2026-04-16 11:45 48.49125 2.16839 33263 ft 444 kts 197°
2026-04-16 11:45 48.43058 2.15029 33253 ft 445 kts 197°
2026-04-16 11:46 48.36981 2.13200 33259 ft 445 kts 197°
2026-04-16 11:46 48.30908 2.11369 33257 ft 445 kts 197°
2026-04-16 11:47 48.24863 2.09561 33259 ft 446 kts 197°
2026-04-16 11:47 48.18784 2.07749 33266 ft 446 kts 197°
2026-04-16 11:48 48.12697 2.05934 33275 ft 446 kts 197°
2026-04-16 11:48 48.06611 2.04123 33289 ft 446 kts 196°
2026-04-16 11:49 48.00566 2.02338 33295 ft 446 kts 196°
2026-04-16 11:49 47.94479 2.00540 33299 ft 446 kts 196°
2026-04-16 11:50 47.88390 1.98738 33296 ft 446 kts 196°
2026-04-16 11:50 47.82304 1.96946 33294 ft 446 kts 196°
2026-04-16 11:51 47.76261 1.95171 33284 ft 446 kts 196°
2026-04-16 11:51 47.70177 1.93391 33282 ft 446 kts 196°
2026-04-16 11:52 47.64088 1.91613 33282 ft 446 kts 196°
2026-04-16 11:52 47.58003 1.89829 33278 ft 446 kts 196°
2026-04-16 11:53 47.51923 1.88057 33282 ft 446 kts 195°
2026-04-16 11:53 47.45875 1.86303 33286 ft 446 kts 195°
2026-04-16 11:54 47.39788 1.84540 33289 ft 446 kts 195°
2026-04-16 11:54 47.33694 1.82777 33290 ft 446 kts 195°
2026-04-16 11:55 47.27604 1.81021 33291 ft 446 kts 195°
2026-04-16 11:55 47.21600 1.79079 33287 ft 442 kts 203°
2026-04-16 11:56 47.16154 1.75176 33287 ft 434 kts 214°
2026-04-16 11:56 47.10932 1.70710 33281 ft 434 kts 214°
2026-04-16 11:57 47.05703 1.66260 33280 ft 435 kts 214°
2026-04-16 11:57 47.00466 1.61821 33281 ft 435 kts 214°
2026-04-16 11:58 46.95264 1.57414 33283 ft 435 kts 214°
2026-04-16 11:58 46.90018 1.52988 33287 ft 435 kts 214°
2026-04-16 11:59 46.84772 1.48574 33284 ft 435 kts 214°
2026-04-16 11:59 46.79524 1.44153 33281 ft 435 kts 214°
2026-04-16 12:00 46.74311 1.39773 33278 ft 435 kts 214°
2026-04-16 12:00 46.69056 1.35376 33270 ft 436 kts 214°
2026-04-16 12:01 46.63801 1.30981 33267 ft 436 kts 214°
2026-04-16 12:01 46.58540 1.26590 33267 ft 436 kts 213°
2026-04-16 12:02 46.50671 1.20062 33270 ft 436 kts 213°
2026-04-16 12:02 46.45399 1.15692 33264 ft 437 kts 213°
2026-04-16 12:03 46.40124 1.11324 33265 ft 437 kts 213°
2026-04-16 12:03 46.34884 1.06996 33268 ft 436 kts 213°
2026-04-16 12:04 46.29612 1.02655 33274 ft 437 kts 213°
2026-04-16 12:04 46.24322 0.98316 33276 ft 437 kts 213°
2026-04-16 12:05 46.19042 0.93980 33274 ft 436 kts 213°
2026-04-16 12:05 46.13795 0.89687 33277 ft 437 kts 213°
2026-04-16 12:06 46.08503 0.85379 33275 ft 437 kts 213°
2026-04-16 12:06 46.03207 0.81079 33277 ft 437 kts 213°
2026-04-16 12:07 45.97920 0.76776 33275 ft 437 kts 213°
2026-04-16 12:07 45.92669 0.72506 33275 ft 437 kts 213°
2026-04-16 12:08 45.87386 0.68221 33270 ft 437 kts 213°
2026-04-16 12:08 45.82088 0.63951 33265 ft 436 kts 213°
2026-04-16 12:09 45.76793 0.59700 33264 ft 436 kts 213°
2026-04-16 12:09 45.71535 0.55476 33262 ft 436 kts 213°
2026-04-16 12:10 45.66245 0.51227 33261 ft 436 kts 213°
2026-04-16 12:10 45.60945 0.46993 33261 ft 436 kts 212°
2026-04-16 12:11 45.55644 0.42764 33257 ft 436 kts 213°
2026-04-16 12:11 45.50383 0.38566 33256 ft 436 kts 212°
2026-04-16 12:12 45.45078 0.34351 33256 ft 436 kts 212°
2026-04-16 12:12 45.39773 0.30146 33247 ft 437 kts 212°
2026-04-16 12:13 45.34463 0.25946 33249 ft 437 kts 212°
2026-04-16 12:13 45.29190 0.21776 33253 ft 437 kts 212°
2026-04-16 12:14 45.23874 0.17584 33251 ft 437 kts 212°
2026-04-16 12:14 45.18551 0.13394 33255 ft 437 kts 212°
2026-04-16 12:15 45.13222 0.09224 33256 ft 438 kts 212°
2026-04-16 12:15 45.07926 0.05089 33256 ft 438 kts 212°
2026-04-16 12:16 45.02597 0.00928 33254 ft 438 kts 212°
2026-04-16 12:16 44.97261 -0.03236 33257 ft 438 kts 212°
2026-04-16 12:17 44.91962 -0.07359 33255 ft 438 kts 212°
2026-04-16 12:17 44.86685 -0.11456 33256 ft 438 kts 212°
2026-04-16 12:18 44.81348 -0.15586 33252 ft 438 kts 212°
2026-04-16 12:18 44.76015 -0.19717 33253 ft 438 kts 212°
2026-04-16 12:19 44.70675 -0.23843 33252 ft 438 kts 211°
2026-04-16 12:19 44.65372 -0.27915 33250 ft 438 kts 211°
2026-04-16 12:20 44.60030 -0.32013 33250 ft 437 kts 211°
2026-04-16 12:20 44.54691 -0.36110 33247 ft 437 kts 211°
2026-04-16 12:21 44.49351 -0.40196 33246 ft 437 kts 211°
2026-04-16 12:21 44.44048 -0.44246 33244 ft 437 kts 211°
2026-04-16 12:22 44.38713 -0.48318 33242 ft 437 kts 211°
2026-04-16 12:22 44.33368 -0.52376 33238 ft 437 kts 211°
2026-04-16 12:23 44.28023 -0.56421 33239 ft 437 kts 211°
2026-04-16 12:23 44.22715 -0.60431 33232 ft 437 kts 211°
2026-04-16 12:24 44.17379 -0.64467 33228 ft 436 kts 211°
2026-04-16 12:24 44.12047 -0.68502 33220 ft 436 kts 211°
2026-04-16 12:25 44.06707 -0.72520 33215 ft 436 kts 211°
2026-04-16 12:25 44.01404 -0.76492 33214 ft 436 kts 211°
2026-04-16 12:26 43.96067 -0.80477 33214 ft 435 kts 211°
2026-04-16 12:26 43.90735 -0.84460 33215 ft 435 kts 211°
2026-04-16 12:27 43.85404 -0.88448 33208 ft 435 kts 211°
2026-04-16 12:27 43.80109 -0.92389 33204 ft 435 kts 211°
2026-04-16 12:28 43.74779 -0.96354 33201 ft 435 kts 211°
2026-04-16 12:28 43.69454 -1.00306 33204 ft 435 kts 211°
2026-04-16 12:29 43.64122 -1.04251 33202 ft 434 kts 210°
2026-04-16 12:29 43.58828 -1.08157 33202 ft 434 kts 211°
2026-04-16 12:30 43.53480 -1.12070 33274 ft 438 kts 210°
2026-04-16 12:30 43.50767 -1.14009 33463 ft 439 kts 210°
2026-04-16 12:30 43.48052 -1.15930 33702 ft 439 kts 209°
2026-04-16 12:31 43.45330 -1.17846 33968 ft 439 kts 209°
2026-04-16 12:31 43.42610 -1.19756 34226 ft 438 kts 209°
2026-04-16 12:31 43.39898 -1.21661 34471 ft 437 kts 209°
2026-04-16 12:31 43.37229 -1.23538 34711 ft 437 kts 209°
2026-04-16 12:32 43.34528 -1.25439 34912 ft 436 kts 210°
2026-04-16 12:32 43.31829 -1.27344 35126 ft 436 kts 210°
2026-04-16 12:32 43.26439 -1.31154 35214 ft 436 kts 210°
2026-04-16 12:33 43.21047 -1.34942 35211 ft 435 kts 209°
2026-04-16 12:33 43.15695 -1.38697 35211 ft 435 kts 210°
2026-04-16 12:34 43.10311 -1.42471 35211 ft 435 kts 209°
2026-04-16 12:34 43.04922 -1.46234 35208 ft 435 kts 209°
2026-04-16 12:35 42.99527 -1.49983 35211 ft 435 kts 209°
2026-04-16 12:35 42.94173 -1.53708 35210 ft 435 kts 209°
2026-04-16 12:36 42.88786 -1.57454 35207 ft 435 kts 209°
2026-04-16 12:36 42.83398 -1.61194 35211 ft 435 kts 209°
2026-04-16 12:37 42.78008 -1.64929 35212 ft 435 kts 209°
2026-04-16 12:37 42.72653 -1.68626 35210 ft 434 kts 209°
2026-04-16 12:38 42.67259 -1.72335 35211 ft 435 kts 209°
2026-04-16 12:38 42.61862 -1.76037 35205 ft 435 kts 209°
2026-04-16 12:39 42.56497 -1.79716 35204 ft 435 kts 209°
2026-04-16 12:39 42.51093 -1.83425 35206 ft 435 kts 209°
2026-04-16 12:40 42.45692 -1.87113 35202 ft 435 kts 208°
2026-04-16 12:40 42.40285 -1.90795 35200 ft 435 kts 209°
2026-04-16 12:41 42.34876 -1.94479 35196 ft 435 kts 208°
2026-04-16 12:41 42.29502 -1.98132 35198 ft 435 kts 208°
2026-04-16 12:42 42.24093 -2.01799 35195 ft 435 kts 208°
2026-04-16 12:42 42.18685 -2.05461 35193 ft 435 kts 208°
2026-04-16 12:43 42.13275 -2.09129 35191 ft 435 kts 208°
2026-04-16 12:43 42.07897 -2.12754 35195 ft 435 kts 208°
2026-04-16 12:44 42.02474 -2.16395 35198 ft 435 kts 208°
2026-04-16 12:44 41.97051 -2.20034 35201 ft 436 kts 208°
2026-04-16 12:45 41.91626 -2.23678 35208 ft 436 kts 208°
2026-04-16 12:45 41.86234 -2.27290 35208 ft 436 kts 208°
2026-04-16 12:46 41.80817 -2.30907 35203 ft 436 kts 208°
2026-04-16 12:46 41.75384 -2.34522 35202 ft 435 kts 208°
2026-04-16 12:47 41.69958 -2.38134 35197 ft 435 kts 208°
2026-04-16 12:47 41.64569 -2.41717 35187 ft 435 kts 208°
2026-04-16 12:48 41.59143 -2.45312 35184 ft 435 kts 208°
2026-04-16 12:48 41.53715 -2.48910 35185 ft 436 kts 209°
2026-04-16 12:49 41.48274 -2.52501 35185 ft 436 kts 208°
2026-04-16 12:49 41.42868 -2.56061 35180 ft 437 kts 209°
2026-04-16 12:50 41.37419 -2.59646 35183 ft 437 kts 209°
2026-04-16 12:50 41.32012 -2.63331 35182 ft 435 kts 215°
2026-04-16 12:51 41.27067 -2.67871 35180 ft 435 kts 217°
2026-04-16 12:51 41.22090 -2.72453 35187 ft 436 kts 217°
2026-04-16 12:52 41.17098 -2.77023 35186 ft 436 kts 217°
2026-04-16 12:52 41.12101 -2.81596 35188 ft 437 kts 218°
2026-04-16 12:53 41.07135 -2.86151 35192 ft 437 kts 218°
2026-04-16 12:53 41.02130 -2.90733 35195 ft 438 kts 218°
2026-04-16 12:54 40.97119 -2.95308 35200 ft 438 kts 218°
2026-04-16 12:54 40.92100 -2.99873 35204 ft 438 kts 218°
2026-04-16 12:55 40.87111 -3.04396 35203 ft 438 kts 218°
2026-04-16 12:55 40.82086 -3.08950 35197 ft 438 kts 218°
2026-04-16 12:56 40.77065 -3.13488 35195 ft 438 kts 218°
2026-04-16 12:56 40.72036 -3.18030 35197 ft 438 kts 218°
2026-04-16 12:57 40.67044 -3.22544 35200 ft 438 kts 218°
2026-04-16 12:57 40.62010 -3.27077 35200 ft 439 kts 218°
2026-04-16 12:58 40.56967 -3.31602 35203 ft 439 kts 218°
2026-04-16 12:58 40.51914 -3.36121 35204 ft 439 kts 218°
2026-04-16 12:59 40.46896 -3.40619 35205 ft 440 kts 218°
2026-04-16 13:00 40.39311 -3.47407 35205 ft 440 kts 218°
2026-04-16 13:00 40.34242 -3.51925 35204 ft 440 kts 218°
2026-04-16 13:01 40.29202 -3.56401 35206 ft 440 kts 218°
2026-04-16 13:01 40.24131 -3.60903 35207 ft 440 kts 218°
2026-04-16 13:02 40.19062 -3.65396 35206 ft 440 kts 218°
2026-04-16 13:02 40.13982 -3.69880 35205 ft 440 kts 218°
2026-04-16 13:03 40.08910 -3.74350 35198 ft 440 kts 218°
2026-04-16 13:03 40.03874 -3.78791 35194 ft 440 kts 218°
2026-04-16 13:04 39.98800 -3.83253 35182 ft 440 kts 218°
2026-04-16 13:04 39.93731 -3.87707 35178 ft 439 kts 218°
2026-04-16 13:05 39.88662 -3.92153 35178 ft 439 kts 218°
2026-04-16 13:05 39.83622 -3.96554 35181 ft 439 kts 218°
2026-04-16 13:06 39.78557 -4.00987 35183 ft 439 kts 218°
2026-04-16 13:06 39.73484 -4.05414 35187 ft 439 kts 217°
2026-04-16 13:07 39.68412 -4.09819 35200 ft 439 kts 217°
2026-04-16 13:07 39.63371 -4.14192 35201 ft 439 kts 217°
2026-04-16 13:08 39.58295 -4.18597 35186 ft 439 kts 217°
2026-04-16 13:08 39.53220 -4.22989 35196 ft 439 kts 217°
2026-04-16 13:09 39.48141 -4.27375 35191 ft 439 kts 217°
2026-04-16 13:09 39.43089 -4.31726 35187 ft 439 kts 217°
2026-04-16 13:10 39.38002 -4.36102 35189 ft 439 kts 217°
2026-04-16 13:10 39.32915 -4.40467 35195 ft 439 kts 217°
2026-04-16 13:11 39.27828 -4.44828 35190 ft 439 kts 217°
2026-04-16 13:11 39.22777 -4.49159 35192 ft 439 kts 217°
2026-04-16 13:12 39.17689 -4.53510 35194 ft 439 kts 217°
2026-04-16 13:12 39.12593 -4.57849 35194 ft 439 kts 217°
2026-04-16 13:13 39.07505 -4.62180 35199 ft 438 kts 217°
2026-04-16 13:13 39.02457 -4.66484 35192 ft 438 kts 217°
2026-04-16 13:14 38.97372 -4.70803 35189 ft 438 kts 217°
2026-04-16 13:14 38.92284 -4.75109 35186 ft 437 kts 217°
2026-04-16 13:15 38.87207 -4.79404 35182 ft 437 kts 217°
2026-04-16 13:15 38.82162 -4.83668 35180 ft 437 kts 216°
2026-04-16 13:16 38.77087 -4.87939 35177 ft 437 kts 216°
2026-04-16 13:16 38.71997 -4.92220 35177 ft 437 kts 216°
2026-04-16 13:17 38.66918 -4.96490 35178 ft 437 kts 216°
2026-04-16 13:17 38.61873 -5.00724 35181 ft 436 kts 216°
2026-04-16 13:18 38.56797 -5.04976 35181 ft 436 kts 216°
2026-04-16 13:18 38.51715 -5.09220 35181 ft 436 kts 216°
2026-04-16 13:19 38.46695 -5.13546 35180 ft 435 kts 218°
2026-04-16 13:19 38.41772 -5.18055 35174 ft 435 kts 219°
2026-04-16 13:20 38.36902 -5.22536 35174 ft 435 kts 218°
2026-04-16 13:20 38.31973 -5.26997 35175 ft 435 kts 218°
2026-04-16 13:21 38.27024 -5.31429 35171 ft 435 kts 218°
2026-04-16 13:21 38.22081 -5.35852 35169 ft 435 kts 218°
2026-04-16 13:22 38.17172 -5.40253 35170 ft 435 kts 218°
2026-04-16 13:22 38.12229 -5.44679 35170 ft 435 kts 217°
2026-04-16 13:23 38.07279 -5.49086 35168 ft 435 kts 217°
2026-04-16 13:23 38.02326 -5.53498 35169 ft 435 kts 217°
2026-04-16 13:24 37.97404 -5.57878 35168 ft 435 kts 217°
2026-04-16 13:24 37.92447 -5.62278 35168 ft 435 kts 217°
2026-04-16 13:25 37.87492 -5.66682 35163 ft 435 kts 217°
2026-04-16 13:25 37.82539 -5.71076 35162 ft 435 kts 217°
2026-04-16 13:26 37.77615 -5.75434 35161 ft 435 kts 217°
2026-04-16 13:26 37.72651 -5.79813 35152 ft 435 kts 217°
2026-04-16 13:27 37.67686 -5.84184 35145 ft 435 kts 216°
2026-04-16 13:27 37.62750 -5.88523 35140 ft 435 kts 216°
2026-04-16 13:28 37.57780 -5.92887 35134 ft 436 kts 216°
2026-04-16 13:28 37.52806 -5.97252 35132 ft 436 kts 216°
2026-04-16 13:29 37.47823 -6.01608 35135 ft 436 kts 216°
2026-04-16 13:29 37.42871 -6.05928 35137 ft 436 kts 216°
2026-04-16 13:30 37.37888 -6.10279 35136 ft 436 kts 216°
2026-04-16 13:30 37.32898 -6.14622 35138 ft 436 kts 216°
2026-04-16 13:31 37.27912 -6.18960 35147 ft 436 kts 216°
2026-04-16 13:31 37.22955 -6.23263 35147 ft 436 kts 216°
2026-04-16 13:32 37.17960 -6.27588 35156 ft 436 kts 216°
2026-04-16 13:32 37.12971 -6.31906 35161 ft 436 kts 216°
2026-04-16 13:33 37.07977 -6.36213 35163 ft 435 kts 216°
2026-04-16 13:33 37.03024 -6.40485 35155 ft 435 kts 216°
2026-04-16 13:34 36.98033 -6.44780 35158 ft 435 kts 215°
2026-04-16 13:34 36.93042 -6.49067 35153 ft 435 kts 215°
2026-04-16 13:35 36.88053 -6.53350 35155 ft 435 kts 215°
2026-04-16 13:35 36.83097 -6.57601 35153 ft 435 kts 215°
2026-04-16 13:36 36.78157 -6.61826 35154 ft 435 kts 215°
2026-04-16 13:36 36.73162 -6.66093 35154 ft 435 kts 215°
2026-04-16 13:37 36.68167 -6.70354 35152 ft 435 kts 215°
2026-04-16 13:37 36.63206 -6.74579 35153 ft 435 kts 214°
2026-04-16 13:38 36.58212 -6.78824 35156 ft 435 kts 214°
2026-04-16 13:38 36.53215 -6.83068 35153 ft 435 kts 214°
2026-04-16 13:39 36.48216 -6.87302 35148 ft 435 kts 214°
2026-04-16 13:39 36.43247 -6.91500 35149 ft 435 kts 214°
2026-04-16 13:40 36.38242 -6.95734 35150 ft 435 kts 214°
2026-04-16 13:40 36.33235 -6.99950 35143 ft 435 kts 214°
2026-04-16 13:41 36.28260 -7.04137 35147 ft 435 kts 214°
2026-04-16 13:41 36.23251 -7.08353 35144 ft 435 kts 214°
2026-04-16 13:42 36.18240 -7.12551 35142 ft 435 kts 213°
2026-04-16 13:42 36.13222 -7.16754 35145 ft 435 kts 213°
2026-04-16 13:43 36.08206 -7.20954 35147 ft 435 kts 213°
2026-04-16 13:43 36.03219 -7.25113 35143 ft 436 kts 213°
2026-04-16 13:44 35.98198 -7.29298 35146 ft 436 kts 213°
2026-04-16 13:44 35.93172 -7.33494 35140 ft 436 kts 213°
2026-04-16 13:45 35.88186 -7.37646 35141 ft 436 kts 213°
2026-04-16 13:45 35.83161 -7.41856 35142 ft 437 kts 217°
2026-04-16 13:46 35.78448 -7.46575 35143 ft 437 kts 218°
2026-04-16 13:46 35.73746 -7.51321 35144 ft 437 kts 218°
2026-04-16 13:47 35.69066 -7.56030 35141 ft 437 kts 218°
2026-04-16 13:47 35.64355 -7.60759 35143 ft 437 kts 218°
2026-04-16 13:48 35.59641 -7.65483 35144 ft 437 kts 218°
2026-04-16 13:48 35.54921 -7.70206 35142 ft 437 kts 218°
2026-04-16 13:49 35.50233 -7.74886 35139 ft 437 kts 218°
2026-04-16 13:49 35.45514 -7.79599 35137 ft 438 kts 218°
2026-04-16 13:50 35.40792 -7.84310 35138 ft 438 kts 218°
2026-04-16 13:50 35.36063 -7.89014 35133 ft 438 kts 217°
2026-04-16 13:51 35.31359 -7.93677 35135 ft 438 kts 217°
2026-04-16 13:51 35.26621 -7.98370 35134 ft 438 kts 217°
2026-04-16 13:52 35.21880 -8.03071 35135 ft 438 kts 217°
2026-04-16 13:52 35.17137 -8.07761 35132 ft 439 kts 217°
2026-04-16 13:53 35.12417 -8.12411 35134 ft 439 kts 217°
2026-04-16 13:53 35.07663 -8.17089 35131 ft 439 kts 217°
2026-04-16 13:54 35.02901 -8.21766 35133 ft 439 kts 217°
2026-04-16 13:54 34.98144 -8.26441 35133 ft 439 kts 217°
2026-04-16 13:55 34.93412 -8.31083 35136 ft 439 kts 217°
2026-04-16 13:55 34.88648 -8.35749 35137 ft 439 kts 217°
2026-04-16 13:56 34.83889 -8.40416 35138 ft 439 kts 217°
2026-04-16 13:56 34.79150 -8.45041 35137 ft 439 kts 217°
2026-04-16 13:57 34.74376 -8.49688 35137 ft 440 kts 217°
2026-04-16 13:57 34.69603 -8.54330 35137 ft 440 kts 217°
2026-04-16 13:58 34.62435 -8.61287 35136 ft 440 kts 217°
2026-04-16 13:58 34.57688 -8.65892 35139 ft 440 kts 217°
2026-04-16 13:59 34.52909 -8.70519 35141 ft 440 kts 217°
2026-04-16 13:59 34.48993 -8.74303 35138 ft 440 kts 217°
2026-04-16 14:00 34.44242 -8.78893 35135 ft 440 kts 217°
2026-04-16 14:00 34.39464 -8.83509 35136 ft 440 kts 217°
2026-04-16 14:01 34.34679 -8.88113 35135 ft 439 kts 216°
2026-04-16 14:01 34.29886 -8.92711 35137 ft 439 kts 216°
2026-04-16 14:02 34.25131 -8.97269 35135 ft 439 kts 216°
2026-04-16 14:02 34.20343 -9.01855 35135 ft 439 kts 216°
2026-04-16 14:03 34.15558 -9.06438 35132 ft 439 kts 216°
2026-04-16 14:03 34.10768 -9.11013 35130 ft 439 kts 216°
2026-04-16 14:04 34.06013 -9.15553 35130 ft 439 kts 216°
2026-04-16 14:04 34.01221 -9.20108 35133 ft 439 kts 216°
2026-04-16 14:05 33.96432 -9.24666 35134 ft 439 kts 216°
2026-04-16 14:05 33.91641 -9.29220 35130 ft 438 kts 216°
2026-04-16 14:06 33.86889 -9.33734 35128 ft 438 kts 216°
2026-04-16 14:06 33.82106 -9.38266 35126 ft 438 kts 216°
2026-04-16 14:07 33.77312 -9.42795 35125 ft 438 kts 216°
2026-04-16 14:07 33.72522 -9.47313 35124 ft 438 kts 216°
2026-04-16 14:08 33.67759 -9.51795 35120 ft 438 kts 216°
2026-04-16 14:08 33.62973 -9.56306 35124 ft 438 kts 216°
2026-04-16 14:09 33.58181 -9.60813 35122 ft 438 kts 216°
2026-04-16 14:09 33.53386 -9.65319 35124 ft 438 kts 216°
2026-04-16 14:10 33.48621 -9.69789 35120 ft 438 kts 216°
2026-04-16 14:10 33.43829 -9.74281 35113 ft 438 kts 216°
2026-04-16 14:11 33.39031 -9.78760 35111 ft 438 kts 216°
2026-04-16 14:11 33.34224 -9.83238 35111 ft 438 kts 216°
2026-04-16 14:12 33.29454 -9.87677 35105 ft 437 kts 216°
2026-04-16 14:12 33.24659 -9.92152 35105 ft 437 kts 216°
2026-04-16 14:13 33.19861 -9.96618 35096 ft 437 kts 216°
2026-04-16 14:13 33.15056 -10.01072 35109 ft 437 kts 216°
2026-04-16 14:14 33.10289 -10.05485 35095 ft 437 kts 216°
2026-04-16 14:14 33.05493 -10.09925 35096 ft 436 kts 216°
2026-04-16 14:15 33.00696 -10.14357 35102 ft 436 kts 216°
2026-04-16 14:15 32.95931 -10.18752 35090 ft 436 kts 217°
2026-04-16 14:16 32.91134 -10.23166 35095 ft 436 kts 216°
2026-04-16 14:16 32.86344 -10.27575 35087 ft 435 kts 217°
2026-04-16 14:17 32.81562 -10.31979 35087 ft 435 kts 217°
2026-04-16 14:17 32.76812 -10.36347 35099 ft 434 kts 217°
2026-04-16 14:18 32.72027 -10.40731 35093 ft 434 kts 217°
2026-04-16 14:18 32.67246 -10.45098 35088 ft 434 kts 217°
2026-04-16 14:19 32.62467 -10.49464 35085 ft 433 kts 217°
2026-04-16 14:19 32.57690 -10.53828 35084 ft 433 kts 217°
2026-04-16 14:20 32.52942 -10.58154 35086 ft 433 kts 217°
2026-04-16 14:20 32.48159 -10.62497 35085 ft 433 kts 217°
2026-04-16 14:21 32.43382 -10.66835 35101 ft 433 kts 217°
2026-04-16 14:21 32.38607 -10.71171 35090 ft 433 kts 217°
2026-04-16 14:22 32.33861 -10.75475 35096 ft 432 kts 217°
2026-04-16 14:22 32.29087 -10.79790 35091 ft 432 kts 217°
2026-04-16 14:23 32.24312 -10.84101 35090 ft 432 kts 218°
2026-04-16 14:23 32.19536 -10.88415 35081 ft 432 kts 218°
2026-04-16 14:24 32.14801 -10.92696 35082 ft 432 kts 218°
2026-04-16 14:24 32.10025 -10.96992 35077 ft 432 kts 218°
2026-04-16 14:25 32.05239 -11.01289 35076 ft 433 kts 218°
2026-04-16 14:25 32.00452 -11.05587 35077 ft 433 kts 218°
2026-04-16 14:26 31.95658 -11.09888 35075 ft 434 kts 218°
2026-04-16 14:26 31.90878 -11.14163 35076 ft 434 kts 218°
2026-04-16 14:27 31.86059 -11.18467 35076 ft 435 kts 218°
2026-04-16 14:27 31.81230 -11.22776 35076 ft 436 kts 219°
2026-04-16 14:28 31.76432 -11.27061 35075 ft 436 kts 219°
2026-04-16 14:28 31.71599 -11.31370 35075 ft 436 kts 219°
2026-04-16 14:29 31.66757 -11.35675 35082 ft 437 kts 219°
2026-04-16 14:29 31.61915 -11.39985 35074 ft 437 kts 219°
2026-04-16 14:30 31.57068 -11.44289 35071 ft 437 kts 219°
2026-04-16 14:30 31.52239 -11.48554 35087 ft 438 kts 219°
2026-04-16 14:31 31.47375 -11.52848 35077 ft 438 kts 219°
2026-04-16 14:31 31.42512 -11.57144 35074 ft 438 kts 220°
2026-04-16 14:32 31.37644 -11.61444 35083 ft 438 kts 220°
2026-04-16 14:32 31.32806 -11.65707 35076 ft 439 kts 220°
2026-04-16 14:33 31.27924 -11.69997 35078 ft 439 kts 220°
2026-04-16 14:33 31.23033 -11.74296 35074 ft 440 kts 220°
2026-04-16 14:34 31.18174 -11.78555 35079 ft 440 kts 220°
2026-04-16 14:34 31.13278 -11.82844 35079 ft 440 kts 221°
2026-04-16 14:35 31.08378 -11.87135 35085 ft 440 kts 221°
2026-04-16 14:35 31.03479 -11.91432 35084 ft 441 kts 221°
2026-04-16 14:36 30.98568 -11.95716 35087 ft 441 kts 221°
2026-04-16 14:36 30.93695 -11.99973 35089 ft 441 kts 221°
2026-04-16 14:37 30.88781 -12.04256 35088 ft 441 kts 221°
2026-04-16 14:37 30.83864 -12.08526 35085 ft 441 kts 221°
2026-04-16 14:38 30.78941 -12.12791 35086 ft 441 kts 222°
2026-04-16 14:38 30.74054 -12.17024 35083 ft 441 kts 222°
2026-04-16 14:39 30.69139 -12.21289 35082 ft 441 kts 222°
2026-04-16 14:39 30.64217 -12.25548 35082 ft 441 kts 222°
2026-04-16 14:40 30.59296 -12.29796 35082 ft 441 kts 222°
2026-04-16 14:40 30.54402 -12.34010 35082 ft 441 kts 222°
2026-04-16 14:41 30.49478 -12.38248 35082 ft 441 kts 223°
2026-04-16 14:41 30.44554 -12.42490 35085 ft 441 kts 223°
2026-04-16 14:42 30.39631 -12.46725 35085 ft 441 kts 223°
2026-04-16 14:42 30.34709 -12.50955 35081 ft 441 kts 223°
2026-04-16 14:43 30.29813 -12.55141 35080 ft 440 kts 223°
2026-04-16 14:43 30.24889 -12.59355 35072 ft 440 kts 223°
2026-04-16 14:44 30.19972 -12.63559 35078 ft 440 kts 223°
2026-04-16 14:44 30.15082 -12.67732 35079 ft 440 kts 223°
2026-04-16 14:45 30.10164 -12.71937 35074 ft 440 kts 223°
2026-04-16 14:45 30.05375 -12.76294 35079 ft 437 kts 226°
2026-04-16 14:46 30.00715 -12.80787 35081 ft 437 kts 226°
2026-04-16 14:46 29.96037 -12.85268 35084 ft 437 kts 226°
2026-04-16 14:47 29.91359 -12.89665 35088 ft 437 kts 226°
2026-04-16 14:47 29.86632 -12.94073 35087 ft 437 kts 226°
2026-04-16 14:48 29.81920 -12.98481 35090 ft 436 kts 226°
2026-04-16 14:48 29.77219 -13.02887 35086 ft 435 kts 226°
2026-04-16 14:49 29.72557 -13.07249 35083 ft 435 kts 226°
2026-04-16 14:49 29.67860 -13.11628 35084 ft 434 kts 226°
2026-04-16 14:50 29.63172 -13.15997 35083 ft 434 kts 226°
2026-04-16 14:50 29.58482 -13.20360 35082 ft 433 kts 226°
2026-04-16 14:51 29.53829 -13.24686 35080 ft 433 kts 225°
2026-04-16 14:51 29.49148 -13.29028 35079 ft 433 kts 225°
2026-04-16 14:53 29.30462 -13.46314 35080 ft 432 kts 225°
2026-04-16 14:54 29.25786 -13.50628 35078 ft 431 kts 225°
2026-04-16 14:54 29.22611 -13.53558 35073 ft 431 kts 225°
2026-04-16 14:55 29.17979 -13.57838 35069 ft 431 kts 225°
2026-04-16 14:55 29.13306 -13.62139 35064 ft 431 kts 225°
2026-04-16 14:56 29.08636 -13.66420 35062 ft 431 kts 225°
2026-04-16 14:56 29.03957 -13.70706 35062 ft 430 kts 225°
2026-04-16 14:57 28.99324 -13.74951 35058 ft 430 kts 225°
2026-04-16 14:57 28.94659 -13.79228 35059 ft 430 kts 225°
2026-04-16 14:58 28.87662 -13.85621 35068 ft 429 kts 225°
2026-04-16 14:59 28.83787 -13.89156 35075 ft 429 kts 225°
2026-04-16 14:59 28.78486 -13.94203 35070 ft 421 kts 234°
2026-04-16 15:00 28.75614 -13.98603 35075 ft 416 kts 239°
2026-04-16 15:00 28.72242 -14.03949 35062 ft 416 kts 239°
2026-04-16 15:01 28.68868 -14.09298 35074 ft 415 kts 239°
2026-04-16 15:01 28.64947 -14.15496 35071 ft 415 kts 239°
2026-04-16 15:02 28.61572 -14.20827 35072 ft 415 kts 239°
2026-04-16 15:02 28.58771 -14.25255 35072 ft 414 kts 239°
2026-04-16 15:03 28.55399 -14.30564 35075 ft 414 kts 239°
2026-04-16 15:03 28.51477 -14.36725 35070 ft 414 kts 239°
2026-04-16 15:04 28.48651 -14.41158 35071 ft 413 kts 239°
2026-04-16 15:04 28.45311 -14.46411 35070 ft 412 kts 239°
2026-04-16 15:05 28.41947 -14.51690 35073 ft 412 kts 238°
2026-04-16 15:05 28.38572 -14.56958 35075 ft 412 kts 238°
2026-04-16 15:06 28.35202 -14.62219 35070 ft 412 kts 238°
2026-04-16 15:06 28.31862 -14.67438 35071 ft 411 kts 238°
2026-04-16 15:07 28.28496 -14.72691 35065 ft 411 kts 238°
2026-04-16 15:07 28.25130 -14.77933 35067 ft 411 kts 238°
2026-04-16 15:08 28.21761 -14.83174 35064 ft 411 kts 238°
2026-04-16 15:08 28.18413 -14.88378 35065 ft 411 kts 238°
2026-04-16 15:09 28.15039 -14.93610 35064 ft 411 kts 238°
2026-04-16 15:09 28.11666 -14.98836 35061 ft 411 kts 238°
2026-04-16 15:10 28.08317 -15.04029 35056 ft 411 kts 238°
2026-04-16 15:10 28.04946 -15.09248 35056 ft 411 kts 237°
2026-04-16 15:11 28.01563 -15.14468 34891 ft 411 kts 238°
2026-04-16 15:11 28.00164 -15.17245 34629 ft 405 kts 252°
2026-04-16 15:11 27.99499 -15.20318 34394 ft 402 kts 265°
2026-04-16 15:11 27.99211 -15.23472 34163 ft 404 kts 265°
2026-04-16 15:12 27.98938 -15.26633 33911 ft 405 kts 265°
2026-04-16 15:12 27.98674 -15.29754 33484 ft 403 kts 265°
2026-04-16 15:12 27.98407 -15.32959 32953 ft 415 kts 266°
2026-04-16 15:12 27.98132 -15.36219 32412 ft 417 kts 265°
2026-04-16 15:13 27.97850 -15.39473 31876 ft 415 kts 265°
2026-04-16 15:13 27.97566 -15.42711 31347 ft 412 kts 265°
2026-04-16 15:13 27.97285 -15.45925 30822 ft 410 kts 265°
2026-04-16 15:13 27.97005 -15.49124 30300 ft 407 kts 265°
2026-04-16 15:14 27.96725 -15.52290 29741 ft 404 kts 265°
2026-04-16 15:14 27.96452 -15.55402 29235 ft 401 kts 265°
2026-04-16 15:14 27.96174 -15.58533 28732 ft 399 kts 265°
2026-04-16 15:14 27.95898 -15.61648 28229 ft 397 kts 265°
2026-04-16 15:15 27.95622 -15.64742 27744 ft 395 kts 265°
2026-04-16 15:15 27.95346 -15.67824 27267 ft 393 kts 265°
2026-04-16 15:15 27.95071 -15.70910 26796 ft 399 kts 265°
2026-04-16 15:15 27.94794 -15.74043 26321 ft 401 kts 265°
2026-04-16 15:16 27.94512 -15.77180 25847 ft 401 kts 265°
2026-04-16 15:16 27.94232 -15.80269 25392 ft 399 kts 265°
2026-04-16 15:16 27.93948 -15.83388 24929 ft 398 kts 265°
2026-04-16 15:16 27.93665 -15.86493 24467 ft 396 kts 265°
2026-04-16 15:17 27.93385 -15.89584 23998 ft 395 kts 265°
2026-04-16 15:17 27.93096 -15.92660 23657 ft 393 kts 265°
2026-04-16 15:17 27.92788 -15.95736 23394 ft 393 kts 265°
2026-04-16 15:17 27.92471 -15.98805 23115 ft 393 kts 265°
2026-04-16 15:18 27.92150 -16.01865 22863 ft 392 kts 264°
2026-04-16 15:18 27.91835 -16.04877 22602 ft 391 kts 264°
2026-04-16 15:18 27.91520 -16.07919 22167 ft 389 kts 264°
2026-04-16 15:18 27.91206 -16.10946 21671 ft 387 kts 264°
2026-04-16 15:19 27.90908 -16.13836 21204 ft 385 kts 264°
2026-04-16 15:19 27.90601 -16.16829 20709 ft 383 kts 264°
2026-04-16 15:19 27.90295 -16.19808 20224 ft 381 kts 264°
2026-04-16 15:19 27.89989 -16.22770 19685 ft 379 kts 264°
2026-04-16 15:20 27.89683 -16.25712 19100 ft 372 kts 264°
2026-04-16 15:20 27.89388 -16.28530 18536 ft 360 kts 263°
2026-04-16 15:20 27.89098 -16.31299 17915 ft 350 kts 263°
2026-04-16 15:20 27.88816 -16.33998 17270 ft 341 kts 263°
2026-04-16 15:21 27.88542 -16.36627 16628 ft 333 kts 263°
2026-04-16 15:21 27.88272 -16.39203 16018 ft 327 kts 263°
2026-04-16 15:21 27.88004 -16.41750 15195 ft 327 kts 263°
2026-04-16 15:21 27.87732 -16.44307 14363 ft 328 kts 263°
2026-04-16 15:22 27.87459 -16.46865 13518 ft 328 kts 262°
2026-04-16 15:22 27.87191 -16.49383 12630 ft 326 kts 262°
2026-04-16 15:22 27.86923 -16.51917 11756 ft 324 kts 262°
2026-04-16 15:22 27.86656 -16.54435 10915 ft 321 kts 261°
2026-04-16 15:23 27.86390 -16.56933 10087 ft 319 kts 261°
2026-04-16 15:23 27.86129 -16.59408 9197 ft 316 kts 262°
2026-04-16 15:23 27.86194 -16.61881 8310 ft 316 kts 275°
2026-04-16 15:23 27.86529 -16.64324 7491 ft 313 kts 277°
2026-04-16 15:24 27.87290 -16.66603 6836 ft 312 kts 300°
2026-04-16 15:24 27.88559 -16.68520 6266 ft 304 kts 306°
2026-04-16 15:24 27.89873 -16.70352 5669 ft 296 kts 306°
2026-04-16 15:24 27.91315 -16.71964 5088 ft 290 kts 322°
2026-04-16 15:25 27.92985 -16.73213 4494 ft 284 kts 326°
2026-04-16 15:25 27.94652 -16.74367 3909 ft 278 kts 330°
2026-04-16 15:25 27.96352 -16.75312 3414 ft 267 kts 346°
2026-04-16 15:25 27.98111 -16.75226 3153 ft 247 kts 25°
2026-04-16 15:26 27.99330 -16.74038 2933 ft 226 kts 65°
2026-04-16 15:26 27.99579 -16.72397 2704 ft 211 kts 96°
2026-04-16 15:26 27.99597 -16.70780 2445 ft 204 kts 71°
2026-04-16 15:26 28.00208 -16.69377 2181 ft 194 kts 64°
2026-04-16 15:27 28.00717 -16.67973 1927 ft 192 kts 67°
2026-04-16 15:27 28.01191 -16.66597 1676 ft 181 kts 68°
2026-04-16 15:27 28.01633 -16.65324 1459 ft 168 kts 64°
2026-04-16 15:27 28.02040 -16.64154 1236 ft 152 kts 69°
2026-04-16 15:28 28.02409 -16.63097 1050 ft 142 kts 66°
2026-04-16 15:28 28.02751 -16.62081 781 ft 136 kts 72°
2026-04-16 15:28 28.03103 -16.61107 670 ft 132 kts 72°
2026-04-16 15:28 28.03436 -16.60132 466 ft 133 kts 71°
2026-04-16 15:29 28.03777 -16.59180 285 ft 127 kts 72°
2026-04-16 15:29 28.04086 -16.58293 198 ft 111 kts 71°
2026-04-16 15:29 28.04312 -16.57640 198 ft 65 kts 69°
2026-04-16 15:29 28.04417 -16.57337 196 ft 27 kts 68°
2026-04-16 15:30 28.04487 -16.57136 202 ft 26 kts 68°
2026-04-16 15:30 28.04573 -16.56985 201 ft 23 kts 52°
2026-04-16 15:30 28.04660 -16.56874 209 ft 11 kts 50°
2026-04-16 15:30 28.04704 -16.56818 217 ft 7 kts 47°
2026-04-16 15:31 28.04728 -16.56797 217 ft 0 kts 21°
2026-04-16 15:31 28.04761 -16.56808 219 ft 9 kts 327°
2026-04-16 15:31 28.04765 -16.56867 226 ft 8 kts 255°
2026-04-16 15:31 28.04753 -16.56917 220 ft 6 kts 255°
2026-04-16 15:32 28.04736 -16.56975 223 ft 7 kts 250°
2026-04-16 15:32 28.04718 -16.57027 223 ft 10 kts 248°
2026-04-16 15:32 28.04693 -16.57102 225 ft 7 kts 252°
2026-04-16 15:32 28.04663 -16.57164 223 ft 11 kts 242°
2026-04-16 15:33 28.04634 -16.57242 223 ft 12 kts 249°
2026-04-16 15:33 28.04600 -16.57340 223 ft 14 kts 248°
2026-04-16 15:33 28.04574 -16.57425 223 ft 6 kts 263°
2026-04-16 15:33 28.04596 -16.57455 223 ft 5 kts 336°
2026-04-16 15:34 28.04623 -16.57468 225 ft 5 kts 338°
2026-04-16 15:34 28.04672 -16.57502 225 ft 8 kts 307°
2026-04-16 15:34 28.04682 -16.57545 226 ft 4 kts 307°
2026-04-16 15:34 28.04709 -16.57561 228 ft 5 kts 338°
2026-04-16 15:35 28.04741 -16.57575 226 ft 0 kts 339°